Terug naar catalogus

STARLINK-32767

ActiefCommunicatieVLEO
NORAD 62601·PAYLOAD·🇺🇸 United States

Gelanceerd Jan 13, 2025 vanaf Cape Canaveral Space Force Station

Loading…

Volgende Passages (komende 24 uur)

TLE

VersSource: CelesTrak SupGP

Epoch: Sep 15, 2026, 02:47 UTC

1 62601C 25008Q   26258.11645833  .00010705  00000+0  38770-3 0  2582
2 62601  42.9999 287.9943 0001470 264.4040 196.5042 15.27575814    16

Volg STARLINK-32767 in realtime met AllMySat

Download on the App Store